Regional Weather Roundup
Issued by NWS Newport/Morehead, NC

Current Version | Previous Version | Text Only | Print | Product List | Glossary On
Versions: 1 2 3 4 5 6 7 8 9 10 11 12 13 14 15 16 17 18 19 20 21 22 23 24 25 26 27 28 29 30 31 32 33 34 35 36 37 38 39 40 41 42 43 44 45 46 47 48 49 50
000
ASUS42 KMHX 240525
RWRMHX
WEATHER ROUNDUP FOR EASTERN NORTH CAROLINA
NATIONAL WEATHER SERVICE NEWPORT/MOREHEAD CITY NC
100 AM EDT SUN JUL 24 2016

NOTE: "FAIR" INDICATES FEW OR NO CLOUDS BELOW 12,000 FEET
WITH NO SIGNIFICANT WEATHER AND/OR OBSTRUCTIONS TO VISIBILITY

NCZ015>017-031-032-045>047-102-103-240600-
NORTH COAST

CITY           SKY/WX    TMP DP  RH WIND       PRES   REMARKS
EDENTON        CLEAR     82  73  75 SW7       30.00R
ELIZABETH CITY CLEAR     79  74  84 SW8       29.99R
KITTY HAWK     CLEAR     81  75  82 SW8       29.98S
MANTEO           N/A     80  78  92 SW10      30.00S

$$

NCZ045>047-081-094-103-104-240600-
CENTRAL COAST

CITY           SKY/WX    TMP DP  RH WIND       PRES   REMARKS
FRISCO         CLEAR     81  75  82 SW8       30.01S

$$

NCZ095-097-098-100-101-240600-
SOUTHERN COAST

CITY           SKY/WX    TMP DP  RH WIND       PRES   REMARKS
BEAUFORT       CLEAR     82  75  79 SW13      30.01S
CEDAR ISLAND   NOT AVBL
JACKSONVILLE   CLEAR     76  73  91 CALM      30.01S
PINEY ISLAND   NOT AVBL
WILMINGTON     CLEAR     76  74  93 CALM      30.02R


$$

NCZ011>013-027>030-043-044-078>080-089-090>093-098-240600-
COASTAL PLAIN

CITY           SKY/WX    TMP DP  RH WIND       PRES   REMARKS
AHOSKIE        CLEAR     77  74  93 S3        29.99R
CLINTON        CLEAR     74  73  95 CALM      30.02R
ELIZABETHTOWN  MOCLDY    75  73  91 CALM      30.01S
GOLDSBORO      CLEAR     77  77 100 SW5       29.99R
GREENVILLE     CLEAR     79  73  83 S3        30.02R
HAVELOCK       CLEAR     78  74  87 S7        30.01F
KENANSVILLE    NOT AVBL
KINSTON        CLEAR     76  72  87 S6        30.01R
NEW BERN       CLEAR     78  74  87 SW5       30.01F
RICHLANDS      CLEAR     74  72  93 S3        30.02R
ROCKY MOUNT    CLEAR     77  73  87 S3        30.00R
WASHINGTON     CLEAR     77  73  87 S3        30.01R
WHITEVILLE     PTCLDY    75  73  92 CALM      30.00F

$$

AMZ130-135-150-152-154-156-158-170-250-252-270-ANZ085-086-088-633-658-670-240600-
MARINE OBSERVATIONS

STATION/POSITION TIME  TEMP    WIND        PRES    WAVE   SWELL
                       AIR SEA DIR/SP/G            HT/PER HT/PER
                 (UTC) (F)     (DEG/KT/KT) (MB)    (FT/S) (FT/S)
CHESAPEAKE LIGHT NOT AVBL
64 E VA BEACH    0450   82 80  220/ 16/ 17 1014.5    4/ 5   2/ 8
DUCK             0500   83 60  230/ 12/ 16 1015.0
2 E DUCK         0411      72                N/A     1/ 8
OREGON INLET     0500   83 85  210/ 13/ 17 1015.5
13E OREGON INLT  0500      83                N/A     2/ 8   2/ 8
HATTERAS CG      0500   82 83  220/  6/  9 1016.0
DIAMOND BUOY     0450   84 86  210/ 14/ 16 1016.0    2/ 4   2/ 9
CAPE LOOKOUT     0500   83     210/  8/ 10 1016.1
BEAUFORT LAB     0500   83 83  220/  7/ 10 1015.6
30 SE NEW RVR IN 0508   84 85  210/ 10/ 14 1016.3
30 SE NEW RVR IN 0425      85                N/A     2/ 8
27 SE WRIGHTSVLE 0508   84 85  210/ 12/ 16 1016.5
5 SE WRIGHTSVLE  0408   83 84  260/  8/ 10 1017.0
225 S CAPE HAT   0450   83 84  200/  4/  4 1017.5    3/ 8   2/ 8
41 SE CHARLESTON 0450   85 86  200/ 14/ 16 1015.8    2/ 9   2/ 9

$$




USA.gov is the U.S. government's official web portal to all federal, state and local government web resources and services.